Weather History for Walnut Ridge, AR

Change the Weather History Date:

Saturday, January 18, 2014

  Actual Average Record
Temperature  
Mean Temperature 39 °F -  
Max Temperature 57 °F 42 °F 57 °F (2014)
Min Temperature 21 °F 27 °F 6 °F (2003)
Degree Days  
Heating Degree Days 26    
Moisture  
Dew Point 20 °F    
Average Humidity 45    
Maximum Humidity 59    
Minimum Humidity 29    
Precipitation  
Precipitation 0.00 in - - ()
Sea Level Pressure  
Sea Level Pressure 29.95 in    
Wind  
Wind Speed 12 mph (SW)    
Max Wind Speed 29 mph    
Max Gust Speed 34 mph    
Visibility 10 miles    
Events      
Averages and records for this station are not official NWS values.
T = Trace of Precipitation, MM = Missing Value Source: NWS Daily Summary

Daily Weather History Graph

Daily Weather History Graph

Search for Another Location

Airport:

Trip Planner

Search our weather history database for the weather conditions in past years. The results will help you decide how hot, cold, wet, or windy it might be!

Date:

Astronomy

Jan. 18, 2014 Rise Set
Actual Time 7:12 AM CST 5:15 PM CST
Civil Twilight 6:45 AM CST 5:43 PM CST
Nautical Twilight 6:13 AM CST 6:15 PM CST
Astronomical Twilight 5:42 AM CST 6:45 PM CST
Moon 7:51 PM CST (1/18) 8:18 AM CST (1/18)
Length of Visible Light 10h 58m
Length of Day
10h 02m
Waning Gibbous, 94% of the Moon is Illuminated
Jan 18
Waning Gibbous
Jan 23
Last Quarter
Jan 30
New
Feb 6
First Quarter
Feb 14
Full

Hourly Weather History & Observations

Time (CST) Temp. Windchill Dew Point Humidity Pressure Visibility Wind Dir Wind Speed Gust Speed Precip Events Conditions
12:15 AM 24.8 °F 17.9 °F 8.6 °F 50% 30.17 in 10.0 mi SW 5.8 mph - N/A   Clear
12:35 AM 24.8 °F 16.9 °F 8.6 °F 50% 30.16 in 10.0 mi SSW 6.9 mph - N/A   Clear
12:55 AM 21.2 °F 12.6 °F 8.6 °F 58% 30.16 in 10.0 mi SSW 6.9 mph - N/A   Clear
1:15 AM 24.8 °F 17.9 °F 10.4 °F 54% 30.16 in 10.0 mi SW 5.8 mph - N/A   Clear
1:35 AM 24.8 °F 17.9 °F 10.4 °F 54% 30.15 in 10.0 mi SW 5.8 mph - N/A   Clear
1:55 AM 24.8 °F 17.9 °F 10.4 °F 54% 30.15 in 10.0 mi SSW 5.8 mph - N/A   Clear
2:15 AM 23.0 °F 13.9 °F 10.4 °F 59% 30.14 in 10.0 mi South 8.1 mph - N/A   Clear
2:35 AM 23.0 °F 14.7 °F 10.4 °F 59% 30.15 in 10.0 mi South 6.9 mph - N/A   Clear
2:55 AM 24.8 °F 16.1 °F 10.4 °F 54% 30.15 in 10.0 mi SSW 8.1 mph - N/A   Clear
3:15 AM 24.8 °F 16.1 °F 12.2 °F 59% 30.15 in 10.0 mi SSW 8.1 mph - N/A   Clear
3:35 AM 24.8 °F 16.1 °F 10.4 °F 54% 30.14 in 10.0 mi South 8.1 mph - N/A   Partly Cloudy
3:55 AM 26.6 °F 17.5 °F 12.2 °F 55% 30.13 in 10.0 mi SSW 9.2 mph - N/A   Mostly Cloudy
4:15 AM 26.6 °F 18.2 °F 12.2 °F 55% 30.11 in 10.0 mi South 8.1 mph - N/A   Overcast
4:35 AM 28.4 °F 19.7 °F 14.0 °F 55% 30.11 in 10.0 mi South 9.2 mph - N/A   Overcast
4:55 AM 28.4 °F 19.7 °F 14.0 °F 55% 30.09 in 10.0 mi South 9.2 mph - N/A   Overcast
5:15 AM 28.4 °F 19.7 °F 15.8 °F 59% 30.08 in 10.0 mi South 9.2 mph - N/A   Overcast
5:35 AM 28.4 °F 19.1 °F 15.8 °F 59% 30.07 in 10.0 mi South 10.4 mph - N/A   Overcast
5:55 AM 28.4 °F 19.1 °F 15.8 °F 59% 30.07 in 10.0 mi South 10.4 mph - N/A   Overcast
6:15 AM 28.4 °F 18.5 °F 15.8 °F 59% 30.06 in 10.0 mi South 11.5 mph - N/A   Overcast
6:35 AM 30.2 °F 20.8 °F 15.8 °F 55% 30.05 in 10.0 mi South 11.5 mph - N/A   Overcast
6:55 AM 30.2 °F 20.2 °F 15.8 °F 55% 30.05 in 10.0 mi South 12.7 mph - N/A   Overcast
7:15 AM 30.2 °F 19.8 °F 15.8 °F 55% 30.04 in 10.0 mi South 13.8 mph - N/A   Overcast
7:35 AM 30.2 °F 20.2 °F 15.8 °F 55% 30.03 in 10.0 mi South 12.7 mph 19.6 mph N/A   Overcast
7:55 AM 30.2 °F 19.8 °F 15.8 °F 55% 30.01 in 10.0 mi South 13.8 mph - N/A   Mostly Cloudy
8:15 AM 32.0 °F 21.6 °F 17.6 °F 55% 30.01 in 10.0 mi South 15.0 mph - N/A   Mostly Cloudy
8:35 AM 33.8 °F 23.2 °F 17.6 °F 52% 29.99 in 10.0 mi South 17.3 mph 21.9 mph N/A   Scattered Clouds
8:55 AM 33.8 °F 23.2 °F 17.6 °F 52% 29.99 in 10.0 mi South 17.3 mph 23.0 mph N/A   Partly Cloudy
9:15 AM 35.6 °F 24.2 °F 17.6 °F 48% 29.97 in 10.0 mi South 21.9 mph 27.6 mph N/A   Mostly Cloudy
9:35 AM 37.4 °F 26.6 °F 17.6 °F 45% 29.96 in 10.0 mi South 21.9 mph 27.6 mph N/A   Overcast
9:55 AM 37.4 °F 26.1 °F 17.6 °F 45% 29.95 in 10.0 mi South 24.2 mph 27.6 mph N/A   Overcast
10:15 AM 37.4 °F 26.6 °F 19.4 °F 48% 29.93 in 10.0 mi South 21.9 mph 27.6 mph N/A   Mostly Cloudy
10:35 AM 37.4 °F 25.9 °F 19.4 °F 48% 29.90 in 10.0 mi SSW 25.3 mph 31.1 mph N/A   Scattered Clouds
10:55 AM 39.2 °F 28.3 °F 19.4 °F 45% 29.88 in 10.0 mi SSW 25.3 mph 33.4 mph N/A   Mostly Cloudy
11:15 AM 42.8 °F 33.3 °F 21.2 °F 42% 29.86 in 10.0 mi SSW 24.2 mph 28.8 mph N/A   Mostly Cloudy
11:35 AM 44.6 °F 34.9 °F 21.2 °F 39% 29.83 in 10.0 mi SSW 28.8 mph 33.4 mph N/A   Partly Cloudy
11:55 AM 46.4 °F 37.9 °F 23.0 °F 40% 29.82 in 10.0 mi SSW 25.3 mph 29.9 mph N/A   Scattered Clouds
12:15 PM 46.4 °F 38.5 °F 23.0 °F 40% 29.79 in 10.0 mi South 21.9 mph 32.2 mph N/A   Partly Cloudy
12:35 PM 46.4 °F 39.0 °F 24.8 °F 43% 29.78 in 10.0 mi SSW 19.6 mph 27.6 mph N/A   Clear
12:55 PM 48.2 °F - 24.8 °F 40% 29.75 in 10.0 mi SSW 23.0 mph 27.6 mph N/A   Clear
1:15 PM 51.8 °F - 26.6 °F 38% 29.74 in 10.0 mi SSW 21.9 mph 28.8 mph N/A   Clear
1:35 PM 53.6 °F - 24.8 °F 33% 29.73 in 10.0 mi SSW 21.9 mph - N/A   Clear
1:55 PM 53.6 °F - 26.6 °F 35% 29.74 in 10.0 mi SSW 18.4 mph 26.5 mph N/A   Clear
2:15 PM 55.4 °F - 26.6 °F 33% 29.73 in 10.0 mi SW 24.2 mph 28.8 mph N/A   Clear
2:35 PM 57.2 °F - 26.6 °F 31% 29.74 in 10.0 mi WSW 16.1 mph - N/A   Clear
2:55 PM 57.2 °F - 24.8 °F 29% 29.74 in 10.0 mi WSW 16.1 mph 25.3 mph N/A   Mostly Cloudy
3:15 PM 57.2 °F - 26.6 °F 31% 29.75 in 10.0 mi WNW 12.7 mph 24.2 mph N/A   Overcast
3:35 PM 57.2 °F - 26.6 °F 31% 29.76 in 10.0 mi West 23.0 mph 27.6 mph N/A   Scattered Clouds
3:55 PM 57.2 °F - 26.6 °F 31% 29.78 in 10.0 mi West 24.2 mph 28.8 mph N/A   Mostly Cloudy
4:15 PM 57.2 °F - 26.6 °F 31% 29.80 in 10.0 mi NW 23.0 mph 29.9 mph N/A   Mostly Cloudy
4:35 PM 51.8 °F - 26.6 °F 38% 29.82 in 10.0 mi NW 16.1 mph - N/A   Partly Cloudy
4:55 PM 51.8 °F - 24.8 °F 35% 29.83 in 10.0 mi WNW 13.8 mph 20.7 mph N/A   Clear
5:15 PM 51.8 °F - 24.8 °F 35% 29.84 in 10.0 mi WNW 8.1 mph - N/A   Scattered Clouds
5:35 PM 51.8 °F - 24.8 °F 35% 29.84 in 10.0 mi West 9.2 mph - N/A   Overcast
5:55 PM 51.8 °F - 24.8 °F 35% 29.85 in 10.0 mi West 9.2 mph - N/A   Overcast
6:15 PM 50.0 °F - 24.8 °F 37% 29.86 in 10.0 mi West 9.2 mph - N/A   Overcast
6:35 PM 51.8 °F - 24.8 °F 35% 29.87 in 10.0 mi WNW 15.0 mph 20.7 mph N/A   Overcast
6:55 PM 51.8 °F - 23.0 °F 33% 29.88 in 10.0 mi West 17.3 mph 24.2 mph N/A   Mostly Cloudy
7:15 PM 50.0 °F - 23.0 °F 35% 29.89 in 10.0 mi West 16.1 mph 20.7 mph N/A   Mostly Cloudy
7:35 PM 50.0 °F - 21.2 °F 32% 29.89 in 10.0 mi WNW 24.2 mph 34.5 mph N/A   Partly Cloudy
7:55 PM 48.2 °F - 21.2 °F 34% 29.90 in 10.0 mi WNW 16.1 mph - N/A   Clear
8:15 PM 48.2 °F - 21.2 °F 34% 29.91 in 10.0 mi WNW 13.8 mph 20.7 mph N/A   Clear
8:35 PM 46.4 °F 40.4 °F 21.2 °F 37% 29.90 in 10.0 mi West 13.8 mph 19.6 mph N/A   Clear
8:55 PM 46.4 °F 39.5 °F 21.2 °F 37% 29.90 in 10.0 mi West 17.3 mph 23.0 mph N/A   Clear
9:15 PM 46.4 °F 40.1 °F 23.0 °F 40% 29.91 in 10.0 mi WNW 15.0 mph 24.2 mph N/A   Clear
9:35 PM 48.2 °F - 23.0 °F 37% 29.91 in 10.0 mi West 15.0 mph 21.9 mph N/A   Mostly Cloudy
9:55 PM 48.2 °F - 23.0 °F 37% 29.91 in 10.0 mi West 11.5 mph 19.6 mph N/A   Overcast
10:15 PM 48.2 °F - 23.0 °F 37% 29.92 in 10.0 mi West 11.5 mph - N/A   Overcast
10:35 PM 46.4 °F 41.9 °F 24.8 °F 43% 29.93 in 10.0 mi WNW 9.2 mph - N/A   Overcast
10:55 PM 46.4 °F 38.5 °F 24.8 °F 43% 29.94 in 10.0 mi NNW 21.9 mph - N/A   Overcast
11:15 PM 44.6 °F 36.6 °F 26.6 °F 49% 29.96 in 10.0 mi NW 19.6 mph 25.3 mph N/A   Mostly Cloudy
11:35 PM 42.8 °F 34.5 °F 23.0 °F 46% 29.96 in 10.0 mi NW 18.4 mph 21.9 mph N/A   Clear
11:55 PM 42.8 °F 34.0 °F 21.2 °F 42% 29.98 in 10.0 mi NW 20.7 mph 27.6 mph N/A   Clear